Back to catalog

BPA 1/SL-24 R/B

AlivePO
NORAD 36600·ROCKET BODY·🇺🇦 Ukraine

Launched Jun 15, 2010 from Dombarovsky

Loading…

Next Passes (next 24 hours)

TLE

FreshSource: Space-Track

Epoch: Sep 14, 2026, 07:11 UTC

1 36600U 10028C   26257.29952259 -.00000029  00000-0  47469-5 0  9998
2 36600  98.2462  99.0373 0374176   2.2333 171.5537 13.72799761814059

Track BPA 1/SL-24 R/B in real time with AllMySat

Download on the App Store